[[{"header":{"parameterUnit":"m.s-1","parameterCategory":1,"la1":30.2991,"la2":30.254,"lo1":-89.0895,"lo2":-89.0444,"dy":0.0017,"dx":0.0017,"nx":28,"ny":28,"refTime":"2024-11-27T03:00:00:Z","depth":0,"parameterNumber":2,"parameterNumberName":"U-component_of_WINDS"},"data":[0,0,0,0,0,0,0,0,0,0,0,0,0,0,0,0,0,0,0,0,0,0,0,0,0,0,0,0,0,0,0,0,0,0,0,0,0,0,0,0,0,0,0,0,0,0,0,0,0,0,0,0,0,0,0,0,0,0,-1.0905,-1.0906,0,-1.099,-1.0991,-1.0992,-1.1067,-1.1068,-1.1068,-1.1069,-1.1154,-1.1155,-1.1156,0,0,0,0,0,0,0,0,0,0,0,0,0,-1.0802,-1.0804,-1.0905,-1.0906,-1.0907,-1.099,-1.0991,-1.0993,-1.1066,-1.1068,-1.1069,-1.107,-1.1153,-1.1155,-1.1157,0,0,0,0,0,0,0,0,0,0,0,0,0,-1.0863,-1.0804,-1.0905,-1.0954,-1.096,-1.099,-1.0991,-1.0993,-1.1066,-1.1068,-1.1069,-1.107,-1.1153,-1.1155,-1.1157,-1.1144,0,0,-1.1163,-1.1164,0,0,0,0,0,0,0,0,-1.086,-1.0867,-1.0946,-1.0951,-1.0957,-1.1019,-1.0986,-1.1044,-1.1066,-1.1026,-1.1069,-1.1071,-1.1108,-1.1114,-1.1127,-1.1148,-1.1152,-1.1164,-1.1165,-1.1166,-1.1167,0,0,0,0,0,0,0,-1.0855,-1.0864,-1.0939,-1.0947,-1.0954,-1.0971,-1.0981,-1.0997,-1.1058,-1.1029,-1.1035,-1.1044,-1.1111,-1.1124,-1.1129,-1.1153,-1.1164,-1.1166,-1.1167,-1.1168,-1.1165,-1.1164,0,0,0,0,0,0,-1.0844,-1.086,-1.0936,-1.0941,-1.0911,-1.0971,-1.0983,-1.0998,-1.1058,-1.1069,-1.1043,-1.1047,-1.112,-1.1127,-1.1132,-1.1119,-1.1166,-1.1168,-1.1169,-1.1166,-1.1165,-1.1163,0,0,0,0,0,0,-1.0842,-1.085,-1.0933,-1.0902,-1.0914,-1.0972,-1.0988,-1.0999,-1.1013,-1.1069,-1.108,-1.1046,-1.1121,-1.1129,-1.114,-1.1123,-1.1169,-1.1171,-1.1168,-1.1166,-1.1164,-1.1093,0,0,0,0,0,0,-1.0838,-1.0849,-1.0846,-1.0901,-1.0915,-1.094,-1.0987,-1.1,-1.1016,-1.1023,-1.1074,-1.1084,-1.1123,-1.1136,-1.1142,-1.1127,-1.1173,-1.117,-1.1167,-1.1164,-1.1097,-1.1089,-1.1082,0,0,0,0,0,-1.0834,-1.0823,-1.0845,-1.0854,-1.0913,-1.0939,-1.0947,-1.0993,-1.1015,-1.1011,-1.1047,-1.1082,-1.1124,-1.1137,-1.1144,-1.1129,-1.1171,-1.1168,-1.1165,-1.1101,-1.1091,-1.1082,0,0,0,0,0,0,-1.0764,-1.0831,-1.0857,-1.0864,-1.0895,-1.0952,-1.0949,-1.0981,-1.1006,-1.1011,-1.1066,-1.1077,-1.1081,-1.1107,-1.112,-1.1118,-1.1152,-1.115,-1.1101,-1.1092,-1.1084,-1.1077,-1.1174,0,0,0,0,0,-1.0749,-1.0766,-1.0824,-1.0824,-1.0838,-1.089,-1.0904,-1.0936,-1.0971,-1.0984,-1.1021,-1.1052,-1.1072,-1.1084,-1.1106,-1.1102,-1.1112,-1.1095,-1.1087,-1.1081,-1.1078,-1.1074,-1.1066,-1.1153,-1.1153,-1.1153,0,0,-1.0719,-1.0758,-1.0765,-1.0811,-1.0839,-1.0853,-1.0901,-1.0915,-1.0925,-1.0986,-1.0998,-1.1025,-1.1064,-1.1066,-1.1069,-1.1087,-1.1056,-1.1077,-1.1071,-1.1072,-1.107,-1.1061,-1.1054,-1.1151,-1.1151,-1.1151,0,0,-1.0671,-1.0703,-1.0705,-1.0732,-1.0774,-1.0808,-1.0808,-1.086,-1.088,-1.0893,-1.0938,-1.095,-1.0984,-1.1008,-1.1025,-1.0982,-1.1015,-1.0988,-1.0947,-1.0943,-1.0936,-1.093,-1.0911,-1.0904,-1.0985,-1.0985,-1.0985,0,-1.0628,-1.0652,-1.0702,-1.0712,-1.0729,-1.0785,-1.0785,-1.0809,-1.0855,-1.0865,-1.0885,-1.0927,-1.0957,-1.0964,-1.0953,-1.0966,-1.0965,-1.0982,-1.0933,-1.0928,-1.0923,-1.0905,-1.0899,-1.0981,-1.0982,-1.0982,-1.0983,0,-1.0595,-1.0611,-1.0607,-1.065,-1.0667,-1.0672,-1.0721,-1.0732,-1.0762,-1.0793,-1.0803,-1.0841,-1.087,-1.0874,-1.0905,-1.0885,-1.0894,-1.0923,-1.0958,-1.091,-1.0894,-1.0888,-1.0976,-1.0977,-1.0979,-1.0979,0,0,-1.0505,-1.0574,-1.0571,-1.059,-1.0639,-1.0651,-1.0657,-1.0686,-1.0692,-1.0722,-1.0727,-1.0753,-1.0779,-1.0798,-1.0831,-1.0827,-1.0786,-1.0856,-1.0858,-1.0839,-1.0762,-1.0738,-1.073,-1.0809,-1.0808,-1.0807,-1.0758,0,-1.0463,-1.0478,-1.0522,-1.0524,-1.0536,-1.0588,-1.0593,-1.0622,-1.0651,-1.0665,-1.0697,-1.0714,-1.0749,-1.076,-1.0759,-1.0792,-1.0771,-1.0796,-1.0811,-1.0811,-1.0797,-1.0723,-1.0698,-1.065,-1.0753,-1.0752,-1.0751,0,-1.0416,-1.0441,-1.0443,-1.0488,-1.0495,-1.0499,-1.0526,-1.054,-1.0573,-1.0594,-1.0613,-1.065,-1.0657,-1.069,-1.0699,-1.0715,-1.0723,-1.074,-1.0739,-1.074,-1.0776,-1.0719,-1.0636,-1.0627,-1.0743,-1.0744,-1.0744,0,-1.0346,-1.038,-1.0385,-1.04,-1.0454,-1.0454,-1.0476,-1.0511,-1.0524,-1.0547,-1.0555,-1.058,-1.0592,-1.0609,-1.0649,-1.0671,-1.0652,-1.069,-1.0667,-1.0666,-1.0659,-1.0659,-1.0574,-1.067,-1.067,-1.067,-1.067,0,-1.0292,-1.0291,-1.0354,-1.0357,-1.0355,-1.0405,-1.0402,-1.0429,-1.0458,-1.0465,-1.0512,-1.0517,-1.0572,-1.0583,-1.0615,-1.0615,-1.0622,-1.0637,-1.0645,-1.0631,-1.0628,-1.0636,-1.0639,-1.0668,-1.0668,-1.0669,-1.0669,0,-1.0214,-1.0257,-1.0265,-1.0314,-1.0326,-1.0322,-1.0364,-1.0367,-1.0398,-1.0406,-1.0411,-1.0459,-1.0474,-1.0517,-1.0543,-1.0564,-1.0554,-1.0571,-1.0542,-1.0547,-1.052,-1.0521,-1.0435,-1.0424,-1.0529,-1.0528,-1.0527,0,-1.0176,-1.0176,-1.0224,-1.0232,-1.0252,-1.0265,-1.0277,-1.0325,-1.0336,-1.0372,-1.037,-1.0388,-1.0406,-1.0427,-1.0463,-1.0482,-1.0498,-1.0467,-1.0502,-1.0486,-1.0494,-1.0492,-1.049,-1.0458,-1.0457,-1.0456,-1.0455,0,-1.0102,-1.0123,-1.014,-1.0163,-1.0176,-1.0197,-1.022,-1.0224,-1.0277,-1.0286,-1.0302,-1.0315,-1.034,-1.0357,-1.0382,-1.0403,-1.0436,-1.0444,-1.0439,-1.0423,-1.0405,-1.0411,-1.0518,-1.0445,-1.0446,-1.0447,-1.0448,-1.0448,-1.0041,-1.0042,-1.0074,-1.0091,-1.0113,-1.0132,-1.0136,-1.0167,-1.0181,-1.0205,-1.0233,-1.0244,-1.0274,-1.031,-1.0328,-1.0337,-1.0355,-1.0349,-1.0347,-1.0344,-1.0335,-1.0406,-1.0342,-1.0342,-1.0343,-1.0343,-1.0343,0,-0.9967,-0.999,-1.0005,-1.0034,-1.0046,-1.0077,-1.0103,-1.011,-1.012,-1.0145,-1.016,-1.0176,-1.0192,-1.0228,-1.0247,-1.0246,-1.0261,-1.0249,-1.0248,-1.0251,-1.032,-1.0321,-1.0236,-1.0236,-1.0236,-1.0236,-1.0236,-1.0236,-0.993,-0.9931,-0.9954,-0.9966,-0.9989,-1.0,-1.0012,-1.0029,-1.0049,-1.0064,-1.0077,-1.0101,-1.013,-1.015,-1.0165,-1.0175,-1.0178,-1.0159,-1.0174,-1.0237,-1.0247,-1.0257,-1.0258,-1.0161,-1.0161,-1.0105,-1.0104,-1.0104]},{"header":{"parameterUnit":"m.s-1","parameterCategory":1,"la1":30.2991,"la2":30.254,"lo1":-89.0895,"lo2":-89.0444,"dy":0.0017,"dx":0.0017,"nx":28,"ny":28,"refTime":"2024-11-27T03:00:00:Z","depth":0,"parameterNumber":3,"parameterNumberName":"V-component_of_WINDS"},"data":[0,0,0,0,0,0,0,0,0,0,0,0,0,0,0,0,0,0,0,0,0,0,0,0,0,0,0,0,0,0,0,0,0,0,0,0,0,0,0,0,0,0,0,0,0,0,0,0,0,0,0,0,0,0,0,0,0,0,3.5409,3.541,0,3.5499,3.55,3.5501,3.5536,3.5536,3.5536,3.5536,3.5623,3.5625,3.5628,0,0,0,0,0,0,0,0,0,0,0,0,0,3.5266,3.5269,3.5408,3.541,3.5411,3.5498,3.55,3.5501,3.5536,3.5536,3.5536,3.5535,3.5622,3.5625,3.5628,0,0,0,0,0,0,0,0,0,0,0,0,0,3.5339,3.5269,3.5408,3.5439,3.5443,3.5498,3.55,3.5501,3.5536,3.5536,3.5536,3.5535,3.5621,3.5625,3.5628,3.5658,0,0,3.564,3.5641,0,0,0,0,0,0,0,0,3.5335,3.5344,3.5433,3.5437,3.5441,3.5506,3.5481,3.5554,3.5536,3.5501,3.5536,3.5535,3.5584,3.5591,3.5608,3.5662,3.5666,3.564,3.5642,3.5644,3.5645,0,0,0,0,0,0,0,3.533,3.5341,3.5444,3.5435,3.544,3.5448,3.5458,3.5495,3.5543,3.5504,3.5507,3.5517,3.5586,3.5604,3.561,3.5667,3.564,3.5643,3.5646,3.5647,3.5754,3.5755,0,0,0,0,0,0,3.532,3.5336,3.5441,3.5447,3.5386,3.5451,3.5462,3.5485,3.5542,3.5551,3.5517,3.5518,3.5598,3.5606,3.5613,3.5655,3.5644,3.5648,3.565,3.5754,3.5755,3.5755,0,0,0,0,0,0,3.5317,3.5329,3.5437,3.5392,3.5407,3.5454,3.548,3.5487,3.5506,3.5553,3.5561,3.5527,3.5598,3.5608,3.5648,3.5658,3.5649,3.5653,3.5753,3.5754,3.5755,3.5736,0,0,0,0,0,0,3.5313,3.5328,3.5339,3.5392,3.5409,3.5471,3.548,3.5489,3.5513,3.5515,3.5565,3.5572,3.5599,3.5642,3.5652,3.5663,3.5656,3.5752,3.5754,3.5755,3.5736,3.5736,3.5736,0,0,0,0,0,3.5307,3.5328,3.534,3.5352,3.5425,3.5471,3.5481,3.5512,3.5513,3.5526,3.5557,3.5571,3.5656,3.5646,3.5657,3.567,3.5752,3.5753,3.5755,3.5735,3.5736,3.5736,0,0,0,0,0,0,3.5273,3.5336,3.5349,3.5388,3.5425,3.5477,3.5493,3.5511,3.5546,3.5546,3.5582,3.5593,3.563,3.5654,3.5642,3.5704,3.5705,3.5708,3.5687,3.5687,3.5687,3.5681,3.5659,0,0,0,0,0,3.527,3.5303,3.5356,3.5385,3.5404,3.5446,3.5467,3.5488,3.5527,3.5541,3.5575,3.5611,3.5646,3.5668,3.5702,3.574,3.5752,3.5754,3.5754,3.5754,3.5757,3.5781,3.5783,3.5759,3.5759,3.5759,0,0,3.5264,3.5302,3.5321,3.538,3.541,3.5444,3.5458,3.5492,3.5517,3.5546,3.5587,3.5613,3.5655,3.5695,3.5714,3.5716,3.5766,3.5756,3.5755,3.5758,3.5783,3.5785,3.5787,3.576,3.576,3.576,0,0,3.527,3.5302,3.5332,3.5364,3.5411,3.544,3.5447,3.5499,3.5518,3.556,3.5583,3.5614,3.5673,3.5703,3.5726,3.575,3.5764,3.576,3.576,3.5783,3.5785,3.5787,3.5797,3.58,3.5762,3.5762,3.5762,0,3.5256,3.5308,3.5344,3.5379,3.5405,3.5436,3.5467,3.5495,3.5551,3.5568,3.557,3.5648,3.5678,3.5727,3.5733,3.575,3.576,3.5754,3.5782,3.5785,3.5787,3.5797,3.58,3.5761,3.5761,3.5761,3.5761,0,3.529,3.5326,3.5344,3.5401,3.5429,3.5461,3.5502,3.5527,3.5547,3.5575,3.5619,3.5658,3.5702,3.5716,3.5734,3.5768,3.5768,3.5776,3.5778,3.5788,3.5798,3.5802,3.576,3.576,3.5761,3.5761,0,0,3.5273,3.5353,3.5359,3.5387,3.5444,3.5472,3.5507,3.5553,3.5574,3.5613,3.5643,3.5695,3.5704,3.573,3.5753,3.5773,3.5792,3.5779,3.5781,3.5781,3.5834,3.5829,3.5832,3.5803,3.5804,3.5805,3.5831,0,3.5288,3.5353,3.5389,3.5439,3.5474,3.5506,3.5537,3.5575,3.5604,3.5638,3.5669,3.5706,3.5714,3.5731,3.5752,3.5785,3.5803,3.5784,3.5832,3.5833,3.5821,3.5837,3.583,3.5854,3.5835,3.5836,3.5836,0,3.5313,3.5355,3.5409,3.5466,3.5482,3.5509,3.5557,3.5589,3.5633,3.5653,3.5685,3.5709,3.5747,3.5747,3.5801,3.5787,3.581,3.5829,3.5831,3.5836,3.5835,3.5844,3.5862,3.5866,3.5843,3.5842,3.5842,0,3.5298,3.5367,3.541,3.5432,3.5499,3.5518,3.5546,3.5591,3.5618,3.5659,3.5677,3.5721,3.5745,3.5779,3.5814,3.5811,3.5866,3.5868,3.5883,3.5882,3.5893,3.5891,3.5915,3.5906,3.5906,3.5906,3.5906,0,3.531,3.5343,3.5404,3.543,3.5468,3.551,3.5546,3.5577,3.5617,3.565,3.568,3.571,3.5755,3.579,3.5818,3.586,3.587,3.5887,3.5894,3.5885,3.5883,3.5899,3.5899,3.5907,3.5907,3.5906,3.5906,0,3.5299,3.5341,3.539,3.5451,3.5468,3.5493,3.5545,3.5572,3.5604,3.5646,3.5658,3.5707,3.5751,3.5791,3.5847,3.5866,3.591,3.5918,3.5895,3.5899,3.5913,3.5911,3.5948,3.5956,3.594,3.5941,3.5941,0,3.5304,3.533,3.5396,3.5422,3.5451,3.5491,3.552,3.5562,3.5591,3.5647,3.5668,3.5715,3.5754,3.5823,3.5864,3.5909,3.5919,3.5929,3.5925,3.5916,3.592,3.5919,3.5923,3.5928,3.5928,3.5928,3.5928,0,3.531,3.5331,3.5372,3.5422,3.5457,3.5498,3.5539,3.5558,3.5609,3.564,3.5687,3.5718,3.5779,3.5826,3.5876,3.5905,3.5925,3.5929,3.5935,3.5926,3.5913,3.5922,3.5896,3.5928,3.5928,3.5928,3.5928,3.5928,3.5308,3.5334,3.5386,3.5432,3.5469,3.5508,3.5538,3.5575,3.5616,3.5671,3.5694,3.5742,3.579,3.586,3.5889,3.5928,3.5931,3.5939,3.5942,3.5943,3.5943,3.5907,3.5937,3.5937,3.5937,3.5937,3.5937,0,3.5316,3.5352,3.5395,3.5454,3.5491,3.551,3.5558,3.5588,3.5631,3.5675,3.5715,3.5771,3.5817,3.5863,3.5912,3.5935,3.5945,3.5946,3.5945,3.5952,3.5936,3.5926,3.5937,3.5937,3.5937,3.5937,3.5937,3.5937,3.5325,3.5372,3.54,3.5466,3.5501,3.5551,3.5578,3.5615,3.565,3.5712,3.5752,3.5783,3.5829,3.5882,3.5926,3.5938,3.5955,3.5954,3.5969,3.5953,3.5952,3.5952,3.5943,3.5957,3.5957,3.5982,3.5982,3.5982]}]]